Terug naar catalogus

STARLINK-34588

ActiefCommunicatieVLEO
NORAD 64729·PAYLOAD·🇺🇸 United States

Gelanceerd Jul 2, 2025 vanaf Cape Canaveral Space Force Station

Loading…

Volgende Passages (komende 24 uur)

TLE

VersSource: CelesTrak SupGP

Epoch: Sep 14, 2026, 20:42 UTC

1 64729C 25144F   26257.86298611  .00035838  00000+0  10598-2 0  2575
2 64729  53.1617  21.8044 0001369  60.5655 273.9305 15.34343488    11

Volg STARLINK-34588 in realtime met AllMySat

Download on the App Store